Starlink 34695

operational
NORAD ID: 64916 Int'l Des: 2025-157 Owner: SPXS Country: US Constellation: starlink
LEOCIRCULAR

Über Starlink 34695

Beschreibung wird geladen...

Live-Position

3D-Globus wird geladen...

Nächste Überflüge

Höhenverlauf

Altitude vs Time

uPlot chart will show altitude changes over time

Zweizeiliger Elementsatz

1 64916U 25157N 26063.02070054 .00069034 00000-0 17076-2 0 9996
2 64916 53.1617 10.0249 0000585 86.3729 273.7343 15.39844375 35286
Epoch: 4. März 2026 • Age: 10 hours

Aktueller Status

Höhe 446.6 km
Geschwindigkeit 7.65 km/s
Subsatellitenpunkt 6.88°N, 62.96°E
Startdatum 26. Juli 2025
Alter 0.6 years
Typ internet

Technische Details

Klassifizierung Payload
Masse 575.00 kg
Trockenmasse 530.00 kg
Gesamtmasse 575.00 kg
Länge 0.30 m
Durchmesser 4.10 m
Spannweite 29.00 m
Form Box + pan
Hersteller SPXS
Bus-Typ Starlink V2MO
Phasenstatus In Orbit
Besitzer/Staat SPXS/US

Große Konstellationen

Loading constellations...